Weather History for KMWO - April, 2013

Change the Weather History Date:

Wednesday, April 10, 2013

  Actual Average (KDAY) Record (KDAY)
Temperature  
Mean Temperature 71 °F 50 °F  
Max Temperature 82 °F 60 °F 84 °F (2011)
Min Temperature 60 °F 40 °F 18 °F (1900)
Degree Days  
Heating Degree Days 0 16  
Month to date heating degree days 172  
Since 1 July heating degree days 5211  
Cooling Degree Days 6 0  
Month to date cooling degree days 0  
Year to date cooling degree days 0  
Growing Degree Days 21 (Base 50)    
Moisture  
Dew Point 63 °F    
Average Humidity 74    
Maximum Humidity 94    
Minimum Humidity 52    
Precipitation  
Precipitation 0.00 in 0.13 in 1.45 in (1994)
Month to date precipitation 1.29  
Year to date precipitation 9.58  
Snow  
Snow 0.00 in 0.00 in 3.00 in (1918)
Month to date snowfall 0.4  
Since 1 July snowfall 23.1  
Snow Depth -    
Sea Level Pressure  
Sea Level Pressure 29.90 in    
Wind  
Wind Speed 10 mph (SSW)    
Max Wind Speed 25 mph    
Max Gust Speed 33 mph    
Visibility 10 miles    
Events      
T = Trace of Precipitation, MM = Missing Value Source: NWS Daily Summary

Daily Weather History Graph

Daily Weather History Graph

Search for Another Location

Airport or City:

Trip Planner

Search our weather history database for the weather conditions in past years. The results will help you decide how hot, cold, wet, or windy it might be!

Date:

Astronomy

Apr. 10, 2013 Rise Set
Actual Time 7:07 AM EDT 8:10 PM EDT
Civil Twilight 6:39 AM EDT 8:38 PM EDT
Nautical Twilight 6:07 AM EDT 9:11 PM EDT
Astronomical Twilight 5:33 AM EDT 9:45 PM EDT
Moon 7:03 AM EDT (4/10) 8:45 PM EDT (4/10)
Length of Visible Light 13h 58m
Length of Day
13h 03m
New Moon, 0% of the Moon is Illuminated
Apr 10
New Moon
Apr 18
First Quarter
Apr 25
Full
May 2
Last Quarter
May 9
New

Hourly Weather History & Observations

Time (EDT) Temp. Heat Index Dew Point Humidity Pressure Visibility Wind Dir Wind Speed Gust Speed Precip Events Conditions
12:15 AM 69.4 °F - 62.1 °F 77% 29.98 in 10.0 mi SW 11.5 mph - N/A   Mostly Cloudy
12:35 AM 70.2 °F - 62.1 °F 75% 29.97 in 10.0 mi SW 8.1 mph - N/A   Overcast
12:55 AM 67.6 °F - 60.4 °F 78% 29.96 in 10.0 mi SW 8.1 mph - N/A   Mostly Cloudy
1:15 AM 67.6 °F - 60.8 °F 79% 29.96 in 10.0 mi SSW 6.9 mph - N/A   Mostly Cloudy
1:35 AM 67.6 °F - 61.0 °F 79% 29.96 in 10.0 mi SW 6.9 mph - N/A   Mostly Cloudy
1:55 AM 67.6 °F - 61.3 °F 80% 29.96 in 10.0 mi SW 4.6 mph - N/A   Overcast
2:15 AM 67.6 °F - 61.5 °F 81% 29.96 in 10.0 mi SW 4.6 mph - N/A   Overcast
2:35 AM 67.6 °F - 62.6 °F 84% 29.96 in 10.0 mi SW 3.5 mph - N/A   Overcast
2:55 AM 67.6 °F - 62.1 °F 82% 29.96 in 10.0 mi SW 5.8 mph - N/A   Overcast
3:15 AM 67.6 °F - 62.4 °F 83% 29.95 in 10.0 mi South 4.6 mph - N/A   Mostly Cloudy
3:55 AM 64.9 °F - 61.5 °F 89% 29.94 in 10.0 mi Calm Calm - N/A   Scattered Clouds
4:15 AM 60.3 °F - 58.1 °F 93% 29.94 in 10.0 mi Calm Calm - N/A   Mostly Cloudy
4:35 AM 60.8 °F - 58.8 °F 93% 29.94 in 10.0 mi SSW 3.5 mph - N/A   Mostly Cloudy
4:55 AM 60.8 °F - 59.0 °F 94% 29.94 in 10.0 mi Calm Calm - N/A   Mostly Cloudy
5:15 AM 62.1 °F - 59.9 °F 93% 29.94 in 10.0 mi Calm Calm - N/A   Mostly Cloudy
5:35 AM 62.6 °F - 59.5 °F 90% 29.94 in 10.0 mi South 4.6 mph - N/A   Mostly Cloudy
5:55 AM 62.6 °F - 60.4 °F 93% 29.94 in 10.0 mi SSW 5.8 mph - N/A   Mostly Cloudy
6:15 AM 67.6 °F - 63.5 °F 87% 29.94 in 10.0 mi South 6.9 mph - N/A   Mostly Cloudy
6:35 AM 67.6 °F - 62.6 °F 84% 29.93 in 10.0 mi South 8.1 mph - N/A   Mostly Cloudy
6:55 AM 67.6 °F - 62.6 °F 84% 29.94 in 10.0 mi SSW 8.1 mph - N/A   Overcast
7:15 AM 67.6 °F - 62.8 °F 84% 29.93 in 10.0 mi SSW 9.2 mph - N/A   Overcast
7:35 AM 67.6 °F - 62.6 °F 84% 29.94 in 10.0 mi SSW 9.2 mph - N/A   Overcast
7:55 AM 67.6 °F - 62.2 °F 83% 29.94 in 10.0 mi SSW 8.1 mph - N/A   Scattered Clouds
8:15 AM 67.6 °F - 61.7 °F 81% 29.94 in 10.0 mi SSW 8.1 mph - N/A   Mostly Cloudy
8:35 AM 67.6 °F - 60.8 °F 79% 29.94 in 10.0 mi SSW 8.1 mph - N/A   Mostly Cloudy
8:55 AM 72.3 °F - 64.2 °F 76% 29.93 in 10.0 mi SSW 11.5 mph - N/A   Mostly Cloudy
9:15 AM 72.7 °F - 64.2 °F 75% 29.94 in 10.0 mi SSW 12.7 mph - N/A   Mostly Cloudy
9:35 AM 72.7 °F - 64.0 °F 74% 29.94 in 10.0 mi SW 15.0 mph - N/A   Overcast
9:55 AM 72.7 °F - 63.9 °F 74% 29.94 in 10.0 mi SW 18.4 mph 25.3 mph N/A   Overcast
10:15 AM 72.7 °F - 64.2 °F 75% 29.93 in 10.0 mi SW 13.8 mph 19.6 mph N/A   Mostly Cloudy
10:35 AM 72.7 °F - 63.5 °F 73% 29.94 in 10.0 mi SW 18.4 mph 23.0 mph N/A   Scattered Clouds
10:55 AM 75.2 °F - 65.3 °F 71% 29.94 in 10.0 mi SW 13.8 mph 25.3 mph N/A   Scattered Clouds
11:15 AM 72.7 °F - 63.9 °F 74% 29.95 in 10.0 mi WSW 13.8 mph 23.0 mph N/A   Scattered Clouds
11:35 AM 72.7 °F - 64.6 °F 76% 29.94 in 10.0 mi SW 12.7 mph 23.0 mph N/A   Mostly Cloudy
11:55 AM 73.6 °F - 65.5 °F 76% 29.95 in 10.0 mi SW 15.0 mph - N/A   Mostly Cloudy
12:15 PM 75.2 °F - 65.8 °F 73% 29.94 in 10.0 mi SW 17.3 mph 24.2 mph N/A   Mostly Cloudy
12:35 PM 77.9 °F - 67.3 °F 70% 29.93 in 10.0 mi SSW 18.4 mph 21.9 mph N/A   Scattered Clouds
1:15 PM 79.0 °F - 66.7 °F 66% 29.93 in 10.0 mi WSW 23.0 mph 28.8 mph N/A   Scattered Clouds
1:35 PM 79.0 °F - 66.6 °F 66% 29.92 in 10.0 mi SW 21.9 mph 28.8 mph N/A   Scattered Clouds
2:15 PM 80.2 °F 82.5 °F 66.6 °F 63% 29.89 in 10.0 mi SW 19.6 mph 31.1 mph N/A   Scattered Clouds
2:35 PM 80.4 °F 82.4 °F 65.8 °F 61% 29.89 in 10.0 mi SW 21.9 mph 32.2 mph N/A   Scattered Clouds
2:55 PM 80.6 °F 82.5 °F 65.5 °F 60% 29.86 in 10.0 mi SW 25.3 mph 33.4 mph N/A   Scattered Clouds
3:15 PM 81.3 °F 83.0 °F 64.9 °F 57% 29.87 in 10.0 mi SW 24.2 mph 33.4 mph N/A   Scattered Clouds
3:35 PM 82.4 °F 84.1 °F 64.8 °F 55% 29.85 in 10.0 mi SW 21.9 mph 32.2 mph N/A   Scattered Clouds
3:55 PM 81.3 °F 82.7 °F 63.9 °F 55% 29.84 in 10.0 mi SW 23.0 mph 28.8 mph N/A   Scattered Clouds
4:15 PM 81.7 °F 83.0 °F 63.7 °F 54% 29.84 in 10.0 mi SSW 21.9 mph 33.4 mph N/A   Scattered Clouds
4:35 PM 82.6 °F 83.8 °F 63.5 °F 52% 29.83 in 10.0 mi SW 21.9 mph 27.6 mph N/A   Scattered Clouds
4:55 PM 82.2 °F 83.3 °F 63.0 °F 52% 29.83 in 10.0 mi SW 21.9 mph 27.6 mph N/A   Scattered Clouds
5:15 PM 81.1 °F 82.3 °F 62.8 °F 53% 29.82 in 10.0 mi SW 24.2 mph 27.6 mph N/A   Scattered Clouds
5:35 PM 80.6 °F 81.7 °F 62.2 °F 53% 29.82 in 10.0 mi SW 20.7 mph 27.6 mph N/A   Scattered Clouds
5:55 PM 80.2 °F 81.4 °F 62.4 °F 54% 29.81 in 10.0 mi SSW 17.3 mph 25.3 mph N/A   Scattered Clouds
6:15 PM 80.2 °F 81.4 °F 62.4 °F 54% 29.81 in 10.0 mi SW 15.0 mph 24.2 mph N/A   Clear
6:35 PM 79.2 °F - 62.2 °F 56% 29.81 in 10.0 mi SSW 16.1 mph 19.6 mph N/A   Clear
6:55 PM 79.0 °F - 62.6 °F 57% 29.82 in 10.0 mi SW 13.8 mph - N/A   Clear
7:15 PM 78.6 °F - 62.8 °F 58% 29.82 in 10.0 mi SW 11.5 mph - N/A   Mostly Cloudy
7:35 PM 77.9 °F - 62.4 °F 59% 29.81 in 10.0 mi SSW 8.1 mph - N/A   Overcast
7:55 PM 77.9 °F - 63.0 °F 60% 29.81 in 10.0 mi SSW 6.9 mph - N/A   Overcast
8:15 PM 77.9 °F - 63.3 °F 61% 29.81 in 10.0 mi SSW 6.9 mph - N/A   Overcast
8:35 PM 73.0 °F - 62.2 °F 69% 29.83 in 10.0 mi NNE 16.1 mph 19.6 mph N/A   Overcast
8:55 PM 67.6 °F - 61.5 °F 81% 29.84 in 10.0 mi NNE 13.8 mph - N/A   Overcast
9:15 PM 67.6 °F - 62.4 °F 83% 29.84 in 10.0 mi NE 9.2 mph - N/A   Overcast
9:35 PM 67.6 °F - 62.6 °F 84% 29.83 in 10.0 mi ENE 11.5 mph - N/A   Mostly Cloudy
9:55 PM 65.3 °F - 60.8 °F 85% 29.83 in 10.0 mi ENE 6.9 mph - N/A   Scattered Clouds
10:15 PM 66.2 °F - 61.9 °F 86% 29.84 in 10.0 mi NE 6.9 mph - N/A   Mostly Cloudy
10:55 PM 65.3 °F - 61.3 °F 87% 29.84 in 10.0 mi NE 8.1 mph - N/A   Clear
11:15 PM 65.3 °F - 61.3 °F 87% 29.85 in 10.0 mi NNE 11.5 mph - N/A   Scattered Clouds
11:35 PM 65.3 °F - 61.2 °F 86% 29.86 in 10.0 mi NE 9.2 mph - N/A   Overcast
11:55 PM 65.3 °F - 61.2 °F 86% 29.85 in 10.0 mi ENE 10.4 mph - N/A   Overcast